WetterOnline ( https://www.wetteronline.de )

Wetter aktuell Erligheim

Aktuelles Wetter: Mühlacker (245m)

6-stündlich | Neueste Meldungen
Ortszeit Temperatur Wetter
Di, 20.08. 2:00 14.5° C bedeckt
Mo, 19.08. 20:00 21.8° C leicht bewölkt
Mo, 19.08. 14:00 23.5° C leicht bewölkt
Mo, 19.08. 8:00 17.3° C wolkig
Mo, 19.08. 2:00 19.6° C bedeckt
So, 18.08. 20:00 25.8° C wolkig
So, 18.08. 14:00 30.2° C wolkenlos
So, 18.08. 8:00 15.6° C wolkenlos
Ortszeit Temperatur Wetter
Di, 20.08. 4:30 14.7° C bewölkt
Di, 20.08. 4:20 14.7° C bewölkt
Di, 20.08. 4:10 14.8° C bewölkt
Di, 20.08. 4:00 14.5° C bewölkt
Di, 20.08. 3:50 14.5° C bewölkt
Di, 20.08. 3:40 14.4° C bewölkt
Di, 20.08. 3:30 14.4° C bewölkt
Di, 20.08. 3:00 14.6° C bewölkt
Di, 20.08. 2:30 14.7° C bewölkt
Di, 20.08. 2:00 14.5° C bedeckt
Di, 20.08. 1:30 14.9° C wolkig
Ortszeit Relative Feuchte Sichtweite
Di, 20.08. 2:00 92% 30 km
Mo, 19.08. 20:00 58% 55 km
Mo, 19.08. 14:00 53% 55 km
Mo, 19.08. 8:00 99% 16 km
Mo, 19.08. 2:00 77% 70 km
So, 18.08. 20:00 57% 55 km
So, 18.08. 14:00 40% 40 km
So, 18.08. 8:00 99% 25 km
Ortszeit Relative Feuchte Sichtweite
Di, 20.08. 4:30 91% 30 km
Di, 20.08. 4:20 91% -
Di, 20.08. 4:10 91% -
Di, 20.08. 4:00 94% 18 km
Di, 20.08. 3:50 94% -
Di, 20.08. 3:40 94% -
Di, 20.08. 3:30 93% 29 km
Di, 20.08. 3:00 94% 30 km
Di, 20.08. 2:30 93% 30 km
Di, 20.08. 2:00 92% 30 km
Di, 20.08. 1:30 91% 35 km
Ortszeit Niederschlagsmenge Niederschlagsart
Di, 20.08. 2:00 0.0 l/m2 in 6 Std. -
Mo, 19.08. 20:00 0.2 l/m2 in 12 Std. -
Mo, 19.08. 14:00 0.0 l/m2 in 6 Std. -
Mo, 19.08. 8:00 3 l/m2 in 12 Std. Regen
Mo, 19.08. 2:00 3 l/m2 in 6 Std. Regen
So, 18.08. 20:00 0.4 l/m2 in 12 Std. Regen
So, 18.08. 14:00 0.1 l/m2 in 6 Std. -
So, 18.08. 8:00 0.1 l/m2 in 12 Std. Regen
Ortszeit Niederschlagsmenge Niederschlagsart
Di, 20.08. 4:30 0.0 l/m2 in 1 Std. -
Di, 20.08. 4:20 keine Meldung -
Di, 20.08. 4:10 keine Meldung -
Di, 20.08. 4:00 0.0 l/m2 in 1 Std. -
Di, 20.08. 3:50 keine Meldung -
Di, 20.08. 3:40 keine Meldung -
Di, 20.08. 3:30 0.0 l/m2 in 1 Std. -
Di, 20.08. 3:00 0.0 l/m2 in 1 Std. -
Di, 20.08. 2:30 0.0 l/m2 in 1 Std. -
Di, 20.08. 2:00 0.0 l/m2 in 1 Std. -
Di, 20.08. 1:30 0.0 l/m2 in 1 Std. -
Ortszeit Stärke Spitze Richtung
km/h Bft. km/h Grad Sektor
Di, 20.08. 2:00 0 0 7 - -
Mo, 19.08. 20:00 4 1 25 200° S
Mo, 19.08. 14:00 7 2 20 300° NW
Mo, 19.08. 8:00 2 1 20 60° NO
Mo, 19.08. 2:00 13 3 26 260° W
So, 18.08. 20:00 11 2 40 260° W
So, 18.08. 14:00 15 3 31 280° W
So, 18.08. 8:00 0 0 14 - -
Ortszeit Stärke Spitze Richtung
km/h Bft. km/h Grad Sektor
Di, 20.08. 4:30 4 1 7 30° NO
Di, 20.08. 4:20 4 1 - 30° NO
Di, 20.08. 4:10 7 2 - 320° NW
Di, 20.08. 4:00 4 1 7 280° W
Di, 20.08. 3:50 4 1 - 280° W
Di, 20.08. 3:40 6 1 - 280° W
Di, 20.08. 3:30 2 1 4 280° W
Di, 20.08. 3:00 2 1 6 190° S
Di, 20.08. 2:30 2 1 4 280° W
Di, 20.08. 2:00 0 0 4 - -
Di, 20.08. 1:30 4 1 4 50° NO
Ortszeit Untergrenze Bedeckung Gattung
total tief tief mittel hoch
Di, 20.08. 2:00 6600 m 8/8 8/8 - - -
Mo, 19.08. 20:00 7500 m 8/8 0/8 - - -
Mo, 19.08. 14:00 1380 m 4/8 4/8 - - -
Mo, 19.08. 8:00 570 m 7/8 2/8 - - -
Mo, 19.08. 2:00 1800 m 8/8 8/8 - - -
So, 18.08. 20:00 5400 m 8/8 1/8 - - -
So, 18.08. 14:00 - 0/8 0/8 - - -
So, 18.08. 8:00 - 0/8 0/8 - - -
Ortszeit Bedeckungsgrad in Achtel und Wolkenuntergrenze
Di, 20.08. 4:30 4(1800m) 7(2100m) 7(6000m)
Di, 20.08. 4:20 4(1800m) 7(2100m) 7(6000m)
Di, 20.08. 4:10 5(1500m) 7(2100m)
Di, 20.08. 4:00 7(1500m) 7(6900m)
Di, 20.08. 3:50 7(1500m) 7(6900m)
Di, 20.08. 3:40 7(1500m) 8(6600m)
Di, 20.08. 3:30 5(1500m) 7(6300m) 8(7200m)
Di, 20.08. 3:00 4(1800m) 7(6000m) 8(7200m)
Di, 20.08. 2:30 4(1800m) 8(6300m) 8(7500m)
Di, 20.08. 2:00 8(6600m) 8(7200m) 8(7200m)
Di, 20.08. 1:30 1(1800m) 8(6300m) 8(6900m)
Ortszeit Luftdruck NN (hPa) Tendenz (hPa in 3 Std.)
Di, 20.08. 2:00 1021 + 1,2
Mo, 19.08. 20:00 1018 + 0,3
Mo, 19.08. 14:00 1017 + 0,3
Mo, 19.08. 8:00 1017 + 1,1
Mo, 19.08. 2:00 1014 + 1,8
So, 18.08. 20:00 1009 + 0,7
So, 18.08. 14:00 1007 - 0,9
So, 18.08. 8:00 1010 - 0,1
Ortszeit Luftdruck NN (hPa) Tendenz (hPa in 3 Std.)
Di, 20.08. 4:30 1021 0,0
Di, 20.08. 4:20 1021 keine Meldung
Di, 20.08. 4:10 1021 keine Meldung
Di, 20.08. 4:00 1021 + 0,1
Di, 20.08. 3:50 1021 keine Meldung
Di, 20.08. 3:40 1021 keine Meldung
Di, 20.08. 3:30 1021 + 0,3
Di, 20.08. 3:00 1021 + 0,6
Di, 20.08. 2:30 1021 + 1,0
Di, 20.08. 2:00 1021 + 1,2
Di, 20.08. 1:30 1021 + 1,3
Ortszeit Schneehöhe (cm)
Di, 20.08. 2:00 -
Mo, 19.08. 20:00 -
Mo, 19.08. 14:00 -
Mo, 19.08. 8:00 -
Mo, 19.08. 2:00 -
So, 18.08. 20:00 -
So, 18.08. 14:00 -
So, 18.08. 8:00 -
Ortszeit Schneehöhe (cm)
Di, 20.08. 4:30 -
Di, 20.08. 4:20 -
Di, 20.08. 4:10 -
Di, 20.08. 4:00 -
Di, 20.08. 3:50 -
Di, 20.08. 3:40 -
Di, 20.08. 3:30 -
Di, 20.08. 3:00 -
Di, 20.08. 2:30 -
Di, 20.08. 2:00 -
Di, 20.08. 1:30 -
Link zu dieser Seite / Seite empfehlen

Das Wetter in ...